Weather History for Siemreap, Cambodia

Change the Weather History Date:

Thursday, October 10, 2013

  Actual Average Record
Temperature  
Mean Temperature 84 °F -  
Max Temperature 89 °F - - ()
Min Temperature 78 °F - - ()
Cooling Degree Days 18    
Growing Degree Days 34 (Base 50)    
Moisture  
Dew Point 73 °F    
Average Humidity 69    
Maximum Humidity 89    
Minimum Humidity 58    
Precipitation  
Precipitation 0.00 in - - ()
Sea Level Pressure  
Sea Level Pressure 29.82 in    
Wind  
Wind Speed 1 mph ()    
Max Wind Speed 10 mph    
Max Gust Speed -    
Visibility 6.0 miles    
Events      
T = Trace of Precipitation, MM = Missing Value Source: Averaged Metar Reports

Daily Weather History Graph

Daily Weather History Graph

Search for Another Location

Airport:

Trip Planner

Search our weather history database for the weather conditions in past years. The results will help you decide how hot, cold, wet, or windy it might be!

Date:

Astronomy

Oct. 10, 2013 Rise Set
Actual Time 5:54 AM ICT 5:48 PM ICT
Civil Twilight 5:33 AM ICT 6:09 PM ICT
Nautical Twilight 5:08 AM ICT 6:34 PM ICT
Astronomical Twilight 4:43 AM ICT 6:59 PM ICT
Moon 10:39 AM ICT (10/10) 10:27 PM ICT (10/10)
Length of Visible Light 12h 36m
Length of Day
11h 53m
Waxing Crescent, 30% of the Moon is Illuminated
Oct 10
Waxing Crescent
Oct 12
First Quarter
Oct 19
Full
Oct 27
Last Quarter
Nov 3
New

Hourly Weather History & Observations

Time (ICT) Temp. Heat Index Dew Point Humidity Pressure Visibility Wind Dir Wind Speed Gust Speed Precip Events Conditions
12:00 AM 80.6 °F 86.2 °F 75.2 °F 84% 29.83 in 5.6 mi Calm Calm - N/A   Scattered Clouds
12:30 AM 80.6 °F 86.2 °F 75.2 °F 84% 29.83 in 5.6 mi Calm Calm - N/A   Scattered Clouds
1:00 AM 80.6 °F 87.1 °F 77.0 °F 89% 29.83 in 5.6 mi Calm Calm - N/A   Scattered Clouds
7:00 AM 78.8 °F - 75.2 °F 89% 29.83 in 6.2 mi Calm Calm - N/A   Partly Cloudy
7:30 AM 80.6 °F 86.2 °F 75.2 °F 84% 29.86 in 6.2 mi Calm Calm - N/A   Partly Cloudy
8:00 AM 80.6 °F 85.4 °F 73.4 °F 79% 29.86 in 6.2 mi Calm Calm - N/A   Partly Cloudy
9:00 AM 84.2 °F 90.9 °F 73.4 °F 70% 29.89 in 6.2 mi Calm Calm - N/A   Partly Cloudy
9:30 AM 84.2 °F 89.6 °F 71.6 °F 66% 29.89 in 6.2 mi Calm Calm - N/A   Partly Cloudy
10:30 AM 86.0 °F 91.8 °F 71.6 °F 62% 29.89 in 6.2 mi Calm Calm - N/A   Partly Cloudy
11:00 AM 86.0 °F 93.4 °F 73.4 °F 66% 29.86 in 6.2 mi Calm Calm - N/A   Partly Cloudy
11:30 AM 87.8 °F 93.8 °F 71.6 °F 58% 29.86 in 6.2 mi Calm Calm - N/A   Partly Cloudy
12:00 PM 87.8 °F 95.6 °F 73.4 °F 62% 29.83 in 6.2 mi Calm Calm - N/A   Partly Cloudy
12:30 PM 87.8 °F 95.6 °F 73.4 °F 62% 29.83 in 6.2 mi Variable 2.3 mph - N/A   Partly Cloudy
1:00 PM 87.8 °F 97.6 °F 75.2 °F 66% 29.80 in 6.2 mi WSW 3.5 mph - N/A   Partly Cloudy
1:30 PM 87.8 °F 97.6 °F 75.2 °F 66% 29.80 in 6.2 mi Calm Calm - N/A   Scattered Clouds
2:00 PM 89.6 °F 98.2 °F 73.4 °F 59% 29.80 in 6.2 mi Calm Calm - N/A   Scattered Clouds
2:30 PM 89.6 °F 98.2 °F 73.4 °F 59% 29.77 in 6.2 mi West 10.4 mph - N/A   Scattered Clouds
3:00 PM 89.6 °F 98.2 °F 73.4 °F 59% 29.77 in 6.2 mi WNW 5.8 mph - N/A   Scattered Clouds
3:30 PM 87.8 °F 93.8 °F 71.6 °F 58% 29.77 in 6.2 mi West 3.5 mph - N/A   Partly Cloudy
4:00 PM 87.8 °F 95.6 °F 73.4 °F 62% 29.77 in 6.2 mi Calm Calm - N/A   Partly Cloudy
4:30 PM 87.8 °F 95.6 °F 73.4 °F 62% 29.77 in 6.2 mi Calm Calm - N/A   Partly Cloudy
5:00 PM 87.8 °F 95.6 °F 73.4 °F 62% 29.77 in 6.2 mi West 3.5 mph - N/A   Partly Cloudy
5:30 PM 86.0 °F 93.4 °F 73.4 °F 66% 29.77 in 6.2 mi Calm Calm - N/A   Partly Cloudy
6:00 PM 86.0 °F 93.4 °F 73.4 °F 66% 29.77 in 6.2 mi Calm Calm - N/A   Partly Cloudy
6:30 PM 86.0 °F 93.4 °F 73.4 °F 66% 29.77 in 6.2 mi WNW 3.5 mph - N/A   Partly Cloudy
7:00 PM 84.2 °F 92.3 °F 75.2 °F 74% 29.77 in 6.2 mi Calm Calm - N/A   Partly Cloudy
7:30 PM 84.2 °F 94.1 °F 77.0 °F 79% 29.80 in 6.2 mi Calm Calm - N/A   Partly Cloudy
8:00 PM 84.2 °F 89.6 °F 71.6 °F 66% 29.83 in 5.6 mi Calm Calm - N/A   Partly Cloudy
8:30 PM 82.4 °F 86.3 °F 69.8 °F 66% 29.83 in 5.6 mi NNE 2.3 mph - N/A   Partly Cloudy
9:00 PM 82.4 °F 86.3 °F 69.8 °F 66% 29.83 in 5.6 mi Calm Calm - N/A   Partly Cloudy
9:30 PM 80.6 °F 84.6 °F 71.6 °F 74% 29.86 in 5.6 mi Calm Calm - N/A   Partly Cloudy
10:00 PM 80.6 °F 84.6 °F 71.6 °F 74% 29.86 in 5.6 mi Calm Calm - N/A   Partly Cloudy
10:30 PM 80.6 °F 84.6 °F 71.6 °F 74% 29.86 in 5.6 mi Calm Calm - N/A   Partly Cloudy
11:00 PM 80.6 °F 84.6 °F 71.6 °F 74% 29.83 in 5.6 mi Calm Calm - N/A   Partly Cloudy
11:30 PM 80.6 °F 84.6 °F 71.6 °F 74% 29.83 in 5.6 mi Calm Calm - N/A   Partly Cloudy